"datetime","# probes","# resolvers","can_ipv6","can_ipv6_prbs","can_tcp","can_tcp_prbs","can_tcp6","can_tcp6_prbs","does_ecs","does_ecs_prbs","does_flagday","does_flagday_prbs","does_rov4","does_rov4_prbs","does_rov6","does_rov6_prbs","does_qnamemin","doesnt_qnamemin","does_qnamemin_prbs","doesnt_qnamemin_prbs","does_nxdomain","doesnt_nxdomain","does_nxdomain_prbs","doesnt_nxdomain_prbs","has_ta_19036","hasnt_ta_19036","has_ta_19036_prbs","hasnt_ta_19036_prbs","has_ta_20326","hasnt_ta_20326","has_ta_20326_prbs","hasnt_ta_20326_prbs","can_rsamd5","cannot_rsamd5","broken_rsamd5","can_rsamd5_prbs","cannot_rsamd5_prbs","broken_rsamd5_prbs","can_dsa","cannot_dsa","broken_dsa","can_dsa_prbs","cannot_dsa_prbs","broken_dsa_prbs","can_rsasha1","cannot_rsasha1","broken_rsasha1","can_rsasha1_prbs","cannot_rsasha1_prbs","broken_rsasha1_prbs","can_dsansec3","cannot_dsansec3","broken_dsansec3","can_dsansec3_prbs","cannot_dsansec3_prbs","broken_dsansec3_prbs","can_rsansec3","cannot_rsansec3","broken_rsansec3","can_rsansec3_prbs","cannot_rsansec3_prbs","broken_rsansec3_prbs","can_rsasha256","cannot_rsasha256","broken_rsasha256","can_rsasha256_prbs","cannot_rsasha256_prbs","broken_rsasha256_prbs","can_rsasha512","cannot_rsasha512","broken_rsasha512","can_rsasha512_prbs","cannot_rsasha512_prbs","broken_rsasha512_prbs","can_eccgost","cannot_eccgost","broken_eccgost","can_eccgost_prbs","cannot_eccgost_prbs","broken_eccgost_prbs","can_ecdsa256","cannot_ecdsa256","broken_ecdsa256","can_ecdsa256_prbs","cannot_ecdsa256_prbs","broken_ecdsa256_prbs","can_ecdsa384","cannot_ecdsa384","broken_ecdsa384","can_ecdsa384_prbs","cannot_ecdsa384_prbs","broken_ecdsa384_prbs","can_ed25519","cannot_ed25519","broken_ed25519","can_ed25519_prbs","cannot_ed25519_prbs","broken_ed25519_prbs","can_ed448","cannot_ed448","broken_ed448","can_ed448_prbs","cannot_ed448_prbs","broken_ed448_prbs","can_gost","cannot_gost","broken_gost","can_gost_prbs","cannot_gost_prbs","broken_gost_prbs","can_sha384","cannot_sha384","broken_sha384","can_sha384_prbs","cannot_sha384_prbs","broken_sha384_prbs","is_internal","is_forwarding","is_external","is_internal_prbs","is_forwarding_prbs","is_external_prbs"
2018-08-02T23:59:58Z,18,27,27,18,27,18,27,18,0,2,0,0,0,0,0,0,27,0,18,11,0,27,0,18,27,0,18,0,27,0,18,0,0,27,0,0,18,1,27,0,0,18,11,0,27,0,0,18,10,0,27,0,0,18,11,0,27,0,0,18,10,0,27,0,0,18,10,0,27,0,0,18,10,0,0,27,0,0,18,0,27,0,0,18,10,0,27,0,0,18,10,0,0,27,0,0,18,0,0,27,0,0,18,0,0,27,0,1,18,0,27,0,0,18,10,0,0,3,24,0,3,16
2018-08-03T23:59:59Z,18,27,27,18,27,18,27,18,0,2,0,0,0,0,0,0,27,0,18,11,0,27,0,18,27,0,18,0,27,0,18,0,0,27,0,0,18,1,27,0,0,18,11,0,27,0,0,18,10,0,27,0,0,18,11,0,27,0,0,18,10,0,27,0,0,18,10,0,27,0,0,18,10,0,0,27,0,0,18,0,27,0,0,18,10,0,27,0,0,18,10,0,0,27,0,0,18,0,0,27,0,0,18,0,0,27,0,1,18,0,27,0,0,18,10,0,0,3,24,0,3,16
2018-08-04T23:59:51Z,17,26,26,17,26,17,26,17,0,2,0,0,0,0,0,0,26,0,17,11,0,26,0,17,26,0,17,0,26,0,17,0,0,26,0,0,17,1,26,0,0,17,11,0,26,0,0,17,10,0,26,0,0,17,11,0,26,0,0,17,10,0,26,0,0,17,10,0,26,0,0,17,10,0,0,26,0,0,17,0,26,0,0,17,10,0,26,0,0,17,10,0,0,26,0,0,17,0,0,26,0,0,17,0,0,26,0,1,17,0,26,0,0,17,10,0,0,3,23,0,3,15
2018-08-05T23:59:49Z,17,26,26,17,26,17,26,17,0,2,0,0,0,0,0,0,26,0,17,11,0,26,0,17,26,0,17,0,26,0,17,0,0,26,0,0,17,1,26,0,0,17,11,0,26,0,0,17,10,0,26,0,0,17,11,0,26,0,0,17,10,0,26,0,0,17,10,0,26,0,0,17,10,0,0,26,0,1,17,0,26,0,0,17,10,0,26,0,0,17,10,0,0,26,0,0,17,0,0,26,0,0,17,0,0,26,0,2,17,0,26,0,0,17,10,0,0,3,23,0,3,15
2018-08-06T23:59:50Z,17,26,26,17,26,17,26,17,0,2,0,0,0,0,0,0,26,0,17,11,0,26,0,17,26,0,17,0,26,0,17,0,0,26,0,0,17,1,26,0,0,17,11,0,26,0,0,17,10,0,26,0,0,17,11,0,26,0,0,17,10,0,26,0,0,17,10,0,26,0,0,17,10,0,0,26,0,0,17,0,26,0,0,17,10,0,26,0,0,17,10,0,0,26,0,0,17,0,0,26,0,0,17,0,0,26,0,1,17,0,26,0,0,17,10,0,0,3,23,0,3,15
2018-08-07T23:59:48Z,17,26,26,17,26,17,26,17,0,2,0,0,0,0,0,0,26,0,17,11,0,26,0,17,26,0,17,0,26,0,17,0,0,26,0,0,17,1,26,0,0,17,11,0,26,0,0,17,10,0,26,0,0,17,11,0,26,0,0,17,10,0,26,0,0,17,10,0,26,0,0,17,10,0,0,26,0,0,17,0,26,0,0,17,10,0,26,0,0,17,10,0,0,26,0,0,17,0,0,26,0,0,17,0,0,26,0,1,17,0,26,0,0,17,10,0,0,3,23,0,3,15
2018-08-08T23:59:22Z,17,26,26,17,26,17,26,17,0,2,0,0,0,0,0,0,26,0,17,11,0,26,0,17,26,0,17,0,26,0,17,0,0,26,0,0,17,1,26,0,0,17,11,0,26,0,0,17,10,0,26,0,0,17,11,0,26,0,0,17,10,0,26,0,0,17,10,0,26,0,0,17,10,0,0,26,0,0,17,0,26,0,0,17,10,0,26,0,0,17,10,0,0,26,0,0,17,0,0,26,0,0,17,0,0,26,0,1,17,0,26,0,0,17,10,0,0,3,23,0,3,15
2018-08-09T23:59:59Z,18,27,27,18,27,18,27,18,0,2,0,0,0,0,0,0,27,0,18,11,0,27,0,18,27,0,18,0,27,0,18,0,0,27,0,0,18,1,27,0,0,18,11,0,27,0,0,18,10,0,27,0,0,18,11,0,27,0,0,18,10,0,27,0,0,18,10,0,27,0,0,18,10,0,0,27,0,0,18,0,27,0,0,18,10,0,27,0,0,18,10,0,0,27,0,0,18,0,0,27,0,0,18,0,0,27,0,1,18,0,27,0,0,18,10,0,0,3,24,0,3,16
2018-08-10T23:59:22Z,17,26,26,17,26,17,26,17,0,2,0,0,0,0,0,0,26,0,17,11,0,26,0,17,26,0,17,0,26,0,17,0,0,26,0,0,17,1,26,0,0,17,11,0,26,0,0,17,10,0,26,0,0,17,11,0,26,0,0,17,10,0,26,0,0,17,10,0,26,0,0,17,10,0,0,26,0,0,17,0,26,0,0,17,10,0,26,0,0,17,10,0,0,26,0,0,17,0,0,26,0,0,17,0,0,26,0,1,17,0,26,0,0,17,10,0,0,3,23,0,3,15
2018-08-11T23:59:22Z,17,26,26,17,26,17,26,17,0,2,0,0,0,0,0,0,26,0,17,11,0,26,0,17,26,0,17,0,26,0,17,0,0,26,0,0,17,1,26,0,0,17,11,0,26,0,0,17,10,0,26,0,0,17,11,0,26,0,0,17,10,0,26,0,0,17,10,0,26,0,0,17,10,0,0,26,0,0,17,0,26,0,0,17,10,0,26,0,0,17,10,0,0,26,0,0,17,0,0,26,0,0,17,0,0,26,0,1,17,0,26,0,0,17,10,0,0,3,23,0,3,15
2018-08-12T23:59:25Z,17,26,26,17,26,17,26,17,0,2,0,0,0,0,0,0,26,0,17,11,0,26,0,17,26,0,17,0,26,0,17,0,0,26,0,0,17,1,26,0,0,17,11,0,26,0,0,17,10,0,26,0,0,17,11,0,26,0,0,17,10,0,26,0,0,17,10,0,26,0,0,17,10,0,0,26,0,0,17,0,26,0,0,17,10,0,26,0,0,17,10,0,0,26,0,0,17,0,0,26,0,0,17,0,0,26,0,1,17,0,26,0,0,17,10,0,0,3,23,0,3,15
2018-08-13T23:59:59Z,18,27,27,18,27,18,27,18,0,2,0,0,0,0,0,0,27,0,18,11,0,27,0,18,27,0,18,0,27,0,18,0,0,27,0,0,18,1,27,0,0,18,11,0,27,0,0,18,10,0,27,0,0,18,11,0,27,0,0,18,10,0,27,0,0,18,10,0,27,0,0,18,10,0,0,27,0,0,18,0,27,0,0,18,10,0,27,0,0,18,10,0,0,27,0,0,18,0,0,27,0,0,18,0,0,27,0,1,18,0,27,0,0,18,10,0,0,3,24,0,3,16
2018-08-14T23:59:25Z,17,26,26,17,26,17,26,17,0,2,0,0,0,0,0,0,26,0,17,11,1,25,1,17,26,0,17,0,26,0,17,0,0,26,0,0,17,1,26,0,0,17,11,0,26,0,0,17,10,0,26,0,0,17,11,0,26,0,0,17,10,0,26,0,0,17,10,0,26,0,0,17,10,0,0,26,0,0,17,0,26,0,0,17,10,0,26,0,0,17,10,0,0,26,0,0,17,0,0,26,0,0,17,0,0,26,0,1,17,0,26,0,0,17,10,0,0,3,23,0,3,15
2018-08-15T23:59:24Z,17,26,26,17,26,17,26,17,0,2,0,0,0,0,0,0,26,0,17,11,0,26,0,17,26,0,17,0,26,0,17,0,0,26,0,0,17,1,26,0,0,17,11,0,26,0,0,17,10,0,26,0,0,17,11,0,26,0,0,17,10,0,26,0,0,17,10,0,26,0,0,17,10,0,0,26,0,0,17,0,26,0,0,17,10,0,26,0,0,17,10,0,0,26,0,0,17,0,0,26,0,0,17,0,0,26,0,1,17,0,26,0,0,17,10,0,0,3,23,0,3,15
2018-08-16T23:59:49Z,17,26,26,17,26,17,26,17,0,2,0,0,0,0,0,0,26,0,17,11,0,26,0,17,26,0,17,0,26,0,17,0,0,26,0,0,17,1,26,0,0,17,11,0,26,0,0,17,10,0,26,0,0,17,11,0,26,0,0,17,10,0,26,0,0,17,10,0,26,0,0,17,10,0,0,26,0,0,17,0,26,0,0,17,10,0,26,0,0,17,10,0,0,26,0,0,17,0,0,26,0,0,17,0,0,26,0,1,17,0,26,0,0,17,10,0,0,3,23,0,3,15
2018-08-17T23:59:51Z,17,26,26,17,26,17,26,17,0,2,0,0,0,0,0,0,26,0,17,11,0,26,0,17,26,0,17,0,26,0,17,0,0,26,0,0,17,1,26,0,0,17,11,0,26,0,0,17,10,0,26,0,0,17,11,0,26,0,0,17,10,0,26,0,0,17,10,0,26,0,0,17,10,0,0,26,0,0,17,0,26,0,0,17,10,0,26,0,0,17,10,0,0,26,0,0,17,0,0,26,0,0,17,0,0,26,0,1,17,0,26,0,0,17,10,0,0,3,23,0,3,15
2018-08-18T23:59:50Z,17,26,26,17,26,17,26,17,0,2,0,0,0,0,0,0,26,0,17,11,0,26,0,17,26,0,17,0,26,0,17,0,0,26,0,0,17,1,26,0,0,17,11,0,26,0,0,17,10,0,26,0,0,17,11,0,26,0,0,17,10,0,26,0,0,17,10,0,26,0,0,17,10,0,0,26,0,0,17,0,26,0,0,17,10,0,26,0,0,17,10,0,0,26,0,0,17,0,0,26,0,0,17,0,0,26,0,1,17,0,26,0,0,17,10,0,0,3,23,0,3,15
2018-08-19T23:59:49Z,17,26,26,17,26,17,26,17,0,2,0,0,0,0,0,0,26,0,17,11,0,26,0,17,26,0,17,0,26,0,17,0,0,26,0,0,17,1,26,0,0,17,11,0,26,0,0,17,10,0,26,0,0,17,11,0,26,0,0,17,10,0,26,0,0,17,10,0,26,0,0,17,10,0,0,26,0,0,17,0,26,0,0,17,10,0,26,0,0,17,10,0,0,26,0,0,17,0,0,26,0,0,17,0,0,26,0,1,17,0,26,0,0,17,10,0,0,3,23,0,3,15
2018-08-20T23:59:48Z,17,26,26,17,26,17,26,17,0,2,0,0,0,0,0,0,26,0,17,11,0,26,0,17,26,0,17,0,26,0,17,0,0,26,0,0,17,1,26,0,0,17,11,0,26,0,0,17,10,0,26,0,0,17,11,0,26,0,0,17,10,0,26,0,0,17,10,0,26,0,0,17,10,0,0,26,0,0,17,0,26,0,0,17,10,0,26,0,0,17,10,0,0,26,0,0,17,0,0,26,0,0,17,0,0,26,0,1,17,0,26,0,0,17,10,0,0,3,23,0,3,15
2018-08-21T23:59:58Z,18,27,27,18,27,18,27,18,0,2,0,0,0,0,0,0,27,0,18,11,0,27,0,18,27,0,18,0,27,0,18,0,0,27,0,0,18,1,27,0,0,18,11,0,27,0,0,18,10,0,27,0,0,18,11,0,27,0,0,18,10,0,27,0,0,18,10,0,27,0,0,18,10,0,0,27,0,0,18,0,27,0,0,18,10,0,27,0,0,18,10,0,0,27,0,0,18,0,0,27,0,0,18,0,0,27,0,1,18,0,27,0,0,18,10,0,0,3,24,0,3,16
2018-08-22T23:59:48Z,17,26,26,17,26,17,26,17,0,2,0,0,0,0,0,0,26,0,17,11,0,26,0,17,26,0,17,0,26,0,17,0,0,26,0,0,17,1,26,0,0,17,11,0,26,0,0,17,10,0,26,0,0,17,11,0,26,0,0,17,10,0,26,0,0,17,10,0,26,0,0,17,10,0,0,26,0,0,17,0,26,0,0,17,10,0,26,0,0,17,10,0,0,26,0,0,17,0,0,26,0,0,17,0,0,26,0,1,17,0,26,0,0,17,10,0,0,3,23,0,3,15
2018-08-23T23:59:51Z,18,28,28,18,26,18,23,17,0,2,0,0,0,0,0,0,28,0,18,12,0,28,0,18,28,0,18,0,28,0,18,0,0,28,0,0,18,1,28,0,0,18,12,0,28,0,0,18,11,0,28,0,0,18,12,0,28,0,0,18,11,0,28,0,0,18,11,0,28,0,0,18,11,0,0,28,0,0,18,0,28,0,0,18,11,0,28,0,0,18,11,0,0,28,0,0,18,0,0,28,0,0,18,0,0,28,0,1,18,0,28,0,0,18,11,0,0,3,25,0,3,16
2018-08-24T23:59:49Z,18,28,28,18,28,18,28,18,0,2,0,0,0,0,0,0,28,0,18,12,0,28,0,18,28,0,18,0,28,0,18,0,0,28,0,0,18,1,28,0,0,18,12,0,28,0,0,18,11,0,28,0,0,18,12,0,28,0,0,18,11,0,28,0,0,18,11,0,28,0,0,18,11,0,0,28,0,0,18,0,28,0,0,18,11,0,28,0,0,18,11,0,0,28,0,0,18,0,0,28,0,0,18,0,0,28,0,1,18,0,28,0,0,18,11,0,0,3,25,0,3,16
2018-08-25T23:59:51Z,18,28,28,18,28,18,28,18,0,2,0,0,0,0,0,0,28,0,18,12,0,28,0,18,28,0,18,0,28,0,18,0,0,28,0,0,18,1,28,0,0,18,12,0,28,0,0,18,11,0,28,0,0,18,12,0,28,0,0,18,11,0,28,0,0,18,11,0,28,0,0,18,11,0,0,28,0,0,18,0,28,0,0,18,11,0,28,0,0,18,11,0,0,28,0,0,18,0,0,28,0,0,18,0,0,28,0,1,18,0,28,0,0,18,11,0,0,3,25,0,3,16
2018-08-26T23:59:51Z,18,28,28,18,28,18,28,18,0,2,0,0,0,0,0,0,28,0,18,12,0,28,0,18,28,0,18,0,28,0,18,0,0,28,0,0,18,1,28,0,0,18,12,0,28,0,0,18,11,0,28,0,0,18,12,0,28,0,0,18,11,0,28,0,0,18,11,0,28,0,0,18,11,0,0,28,0,0,18,0,28,0,0,18,11,0,28,0,0,18,11,0,0,28,0,1,18,0,0,28,0,0,18,0,0,28,0,1,18,0,28,0,0,18,11,0,0,3,25,0,3,16
2018-08-27T23:59:50Z,18,28,28,18,28,18,28,18,0,2,0,0,0,0,0,0,28,0,18,12,0,28,0,18,28,0,18,0,28,0,18,0,0,28,0,0,18,1,28,0,0,18,12,0,28,0,0,18,11,0,28,0,0,18,12,0,28,0,0,18,11,0,28,0,0,18,11,0,28,0,0,18,11,0,0,28,0,0,18,0,28,0,0,18,11,0,28,0,0,18,11,0,0,28,0,1,18,0,0,28,0,0,18,0,0,28,0,1,18,0,28,0,0,18,11,0,0,3,25,0,3,16
2018-08-28T23:59:58Z,19,29,29,19,29,19,29,19,0,2,0,0,0,0,0,0,29,0,19,12,0,29,0,19,29,0,19,0,29,0,19,0,0,29,0,0,19,1,29,0,0,19,12,0,29,0,0,19,11,0,29,0,0,19,12,0,29,0,0,19,11,0,29,0,0,19,11,0,29,0,0,19,11,0,0,29,0,0,19,0,29,0,0,19,11,0,29,0,0,19,11,0,0,29,0,1,19,0,0,29,0,0,19,0,0,29,0,1,19,0,29,0,0,19,11,0,0,3,26,0,3,17
2018-08-29T23:59:58Z,19,29,29,19,29,19,29,19,0,2,0,0,0,0,0,0,29,0,19,12,0,29,0,19,29,0,19,0,29,0,19,0,0,29,0,0,19,1,29,0,0,19,12,0,29,0,0,19,11,0,29,0,0,19,12,0,29,0,0,19,11,0,29,0,0,19,11,0,29,0,0,19,11,0,0,29,0,0,19,0,29,0,0,19,11,0,29,0,0,19,11,0,0,29,0,1,19,0,0,29,0,0,19,0,0,29,0,1,19,0,29,0,0,19,11,0,0,3,26,0,3,17
2018-08-30T23:59:50Z,18,28,28,18,28,18,28,18,3,5,0,0,0,0,0,0,28,0,18,12,0,28,0,18,28,0,18,0,28,0,18,0,0,28,0,0,18,1,28,0,0,18,12,0,28,0,0,18,11,0,28,0,0,18,12,0,28,0,0,18,11,0,28,0,0,18,11,0,28,0,0,18,11,0,0,28,0,0,18,0,28,0,0,18,11,0,28,0,0,18,11,0,0,28,0,1,18,0,0,28,0,0,18,0,0,28,0,1,18,0,28,0,0,18,11,0,0,3,25,0,3,16
2018-08-31T23:59:50Z,18,28,28,18,28,18,28,18,5,6,0,0,0,0,0,0,28,0,18,12,0,28,0,18,28,0,18,0,28,0,18,0,0,28,0,0,18,1,28,0,0,18,12,0,28,0,0,18,11,0,28,0,0,18,12,0,28,0,0,18,11,0,28,0,0,18,11,0,28,0,0,18,11,0,0,28,0,0,18,0,28,0,0,18,11,0,28,0,0,18,11,0,0,28,0,1,18,0,0,28,0,0,18,0,0,28,0,1,18,0,28,0,0,18,11,0,0,3,25,0,3,16
2018-09-01T23:59:49Z,18,28,28,18,28,18,28,18,2,4,0,0,0,0,0,0,28,0,18,12,0,28,0,18,28,0,18,0,28,0,18,0,0,28,0,0,18,1,28,0,0,18,12,0,28,0,0,18,11,0,28,0,0,18,12,0,28,0,0,18,11,0,28,0,0,18,11,0,28,0,0,18,11,0,0,28,0,0,18,0,28,0,0,18,11,0,28,0,0,18,11,0,0,28,0,1,18,0,0,28,0,0,18,0,0,28,0,1,18,0,28,0,0,18,11,0,0,3,25,0,3,16
2018-09-02T23:59:49Z,18,28,28,18,28,18,28,18,4,5,0,0,0,0,0,0,28,0,18,12,0,28,0,18,28,0,18,0,28,0,18,0,0,28,0,0,18,1,28,0,0,18,12,0,28,0,0,18,11,0,28,0,0,18,12,0,28,0,0,18,11,0,28,0,0,18,11,0,28,0,0,18,11,0,0,28,0,0,18,0,28,0,0,18,11,0,28,0,0,18,11,0,0,28,0,1,18,0,0,28,0,0,18,0,0,28,0,1,18,0,28,0,0,18,11,0,0,3,25,0,3,16
2018-09-03T23:59:49Z,18,28,28,18,28,18,28,18,9,11,0,0,0,0,0,0,28,0,18,12,0,28,0,18,28,0,18,0,28,0,18,0,0,28,0,0,18,1,28,0,0,18,12,0,28,0,0,18,11,0,28,0,0,18,12,0,28,0,0,18,11,0,28,0,0,18,11,0,28,0,0,18,11,0,0,28,0,0,18,0,28,0,0,18,11,0,28,0,0,18,11,0,0,28,0,1,18,0,0,28,0,0,18,0,0,28,0,1,18,0,28,0,0,18,11,0,0,3,25,0,3,16
2018-09-04T23:59:49Z,18,28,28,18,28,18,28,18,10,10,0,0,0,0,0,0,28,0,18,12,0,28,0,18,28,0,18,0,28,0,18,0,0,28,0,0,18,1,28,0,0,18,12,0,28,0,0,18,11,0,28,0,0,18,12,0,28,0,0,18,11,0,28,0,0,18,11,0,28,0,0,18,11,0,0,28,0,0,18,0,28,0,0,18,11,0,28,0,0,18,11,0,0,28,0,1,18,0,0,28,0,0,18,0,0,28,0,1,18,0,28,0,0,18,11,0,0,3,25,0,3,16
2018-09-05T23:59:54Z,19,29,29,19,29,19,29,19,8,9,0,0,0,0,0,0,28,1,18,13,0,29,0,19,28,0,18,0,29,0,19,0,0,29,0,0,19,1,28,1,0,18,13,0,28,1,0,18,12,0,28,1,0,18,13,0,28,1,0,18,12,0,28,1,0,18,12,0,28,1,0,18,12,0,0,29,0,0,19,0,28,1,0,18,12,0,28,1,0,18,12,0,0,29,0,1,19,0,0,29,0,0,19,0,0,29,0,1,19,0,29,0,0,19,12,0,0,4,25,0,4,16
2018-09-06T23:59:59Z,19,29,29,19,29,19,29,19,17,14,0,0,0,0,0,0,29,0,19,12,0,29,0,19,29,0,19,0,29,0,19,0,0,29,0,0,19,1,29,0,0,19,12,0,29,0,0,19,11,0,29,0,0,19,12,0,29,0,0,19,11,0,29,0,0,19,11,0,29,0,0,19,11,0,0,29,0,0,19,0,29,0,0,19,11,0,29,0,0,19,11,0,0,29,0,1,19,0,0,29,0,0,19,0,0,29,0,1,19,0,29,0,0,19,11,0,0,3,26,0,3,17
2018-09-07T23:59:59Z,20,30,30,20,30,20,29,20,17,15,0,0,0,0,0,0,29,1,19,13,0,30,0,20,29,0,19,0,30,0,20,0,1,29,0,1,20,1,29,0,1,19,13,1,30,0,0,20,12,0,29,1,0,19,13,0,29,1,0,19,12,0,30,0,0,20,11,0,29,1,0,19,12,0,0,30,0,0,20,0,29,1,0,19,12,0,29,1,0,19,12,0,0,30,0,1,20,0,0,30,0,0,20,0,0,30,0,1,20,0,30,0,0,20,12,0,0,4,26,0,4,17
2018-09-08T23:59:50Z,18,28,28,18,28,18,28,18,11,11,0,0,0,0,0,0,28,0,18,12,0,28,0,18,28,0,18,0,28,0,18,0,0,28,0,0,18,1,28,0,0,18,12,0,28,0,0,18,11,0,28,0,0,18,12,0,28,0,0,18,11,0,28,0,0,18,11,0,28,0,0,18,11,0,0,28,0,0,18,0,28,0,0,18,11,0,28,0,0,18,11,0,0,28,0,1,18,0,0,28,0,0,18,0,0,28,0,1,18,0,28,0,0,18,11,0,0,3,25,0,3,16
2018-09-09T23:59:49Z,18,28,28,18,28,18,28,18,13,11,0,0,0,0,0,0,28,0,18,12,0,28,0,18,28,0,18,0,28,0,18,0,0,28,0,0,18,1,28,0,0,18,12,0,28,0,0,18,11,0,28,0,0,18,12,0,28,0,0,18,11,0,28,0,0,18,11,0,28,0,0,18,11,0,0,28,0,0,18,0,28,0,0,18,11,0,28,0,0,18,11,0,0,28,0,1,18,0,0,28,0,0,18,0,0,28,0,1,18,0,28,0,0,18,11,0,0,3,25,0,3,16
2018-09-10T23:59:51Z,18,28,28,18,28,18,28,18,14,14,0,0,0,0,0,0,28,0,18,12,0,28,0,18,28,0,18,0,28,0,18,0,0,28,0,0,18,1,28,0,0,18,12,0,28,0,0,18,11,0,28,0,0,18,12,0,28,0,0,18,11,0,28,0,0,18,11,0,28,0,0,18,11,0,0,28,0,0,18,0,28,0,0,18,11,0,28,0,0,18,11,0,0,28,0,1,18,0,0,28,0,0,18,0,0,28,0,1,18,0,28,0,0,18,11,0,0,3,25,0,3,16
2018-09-11T23:59:48Z,18,28,28,18,28,18,28,18,14,13,0,0,0,0,0,0,28,0,18,12,0,28,0,18,28,0,18,0,28,0,18,0,0,28,0,0,18,1,28,0,0,18,12,0,28,0,0,18,11,0,28,0,0,18,12,0,28,0,0,18,11,0,28,0,0,18,11,0,28,0,0,18,11,0,0,28,0,0,18,0,28,0,0,18,11,0,28,0,0,18,11,0,0,28,0,1,18,0,0,28,0,0,18,0,0,28,0,1,18,0,28,0,0,18,11,0,0,3,25,0,3,16
2018-09-12T23:59:49Z,19,29,29,19,29,19,29,19,11,12,0,0,0,0,0,0,29,0,19,13,0,29,0,19,29,0,19,0,29,0,19,0,0,29,0,0,19,1,29,0,0,19,13,0,29,0,0,19,12,0,29,0,0,19,13,0,29,0,0,19,12,0,29,0,0,19,12,0,29,0,0,19,12,0,0,29,0,0,19,0,29,0,0,19,12,0,29,0,0,19,12,0,0,29,0,1,19,0,0,29,0,0,19,0,0,29,0,1,19,1,29,0,0,19,12,0,0,3,26,0,3,17
2018-09-13T23:59:51Z,18,28,28,18,28,18,28,18,15,15,0,0,0,0,0,0,28,0,18,12,0,28,0,18,28,0,18,0,28,0,18,0,0,28,0,0,18,1,28,0,0,18,12,0,28,0,0,18,11,0,28,0,0,18,12,0,28,0,0,18,11,0,28,0,0,18,11,0,28,0,0,18,11,0,0,28,0,0,18,0,28,0,0,18,11,0,28,0,0,18,11,0,0,28,0,1,18,0,0,28,0,0,18,0,0,28,0,1,18,1,28,0,0,18,11,0,0,3,25,0,3,16
2018-09-14T23:59:48Z,18,28,28,18,28,18,28,18,18,16,0,0,0,0,0,0,28,0,18,12,0,28,0,18,28,0,18,0,28,0,18,0,0,28,0,0,18,1,28,0,0,18,12,0,28,0,0,18,11,0,28,0,0,18,12,0,28,0,0,18,11,0,28,0,0,18,11,0,28,0,0,18,11,0,0,28,0,0,18,0,28,0,0,18,11,0,28,0,0,18,11,0,0,28,0,1,18,0,0,28,0,0,18,0,0,28,0,0,18,1,28,0,0,18,11,0,0,3,25,0,3,16
2018-09-15T23:59:49Z,18,28,28,18,28,18,28,18,20,17,0,0,0,0,0,0,28,0,18,12,0,28,0,18,28,0,18,0,28,0,18,0,0,28,0,0,18,1,28,0,0,18,12,0,28,0,0,18,11,0,28,0,0,18,12,0,28,0,0,18,11,0,28,0,0,18,11,0,28,0,0,18,11,0,0,28,0,0,18,0,28,0,0,18,11,0,28,0,0,18,11,0,0,28,0,1,18,0,0,28,0,0,18,0,0,28,0,0,18,1,28,0,0,18,11,0,0,3,25,0,3,16
2018-09-16T23:59:51Z,18,28,28,18,28,18,28,18,11,11,0,0,0,0,0,0,28,0,18,12,0,28,0,18,28,0,18,0,28,0,18,0,0,28,0,0,18,1,28,0,0,18,12,0,28,0,0,18,11,0,28,0,0,18,12,0,28,0,0,18,11,0,28,0,0,18,11,0,28,0,0,18,11,0,0,28,0,0,18,0,28,0,0,18,11,0,28,0,0,18,11,0,0,28,0,1,18,0,0,28,0,0,18,0,0,28,0,0,18,1,28,0,0,18,11,0,0,3,25,0,3,16
2018-09-17T23:59:48Z,18,28,28,18,28,18,28,18,15,14,0,0,0,0,0,0,28,0,18,12,0,28,0,18,28,0,18,0,28,0,18,0,0,28,0,0,18,1,28,0,0,18,12,0,28,0,0,18,11,0,28,0,0,18,12,0,28,0,0,18,11,0,28,0,0,18,11,0,28,0,0,18,11,0,0,28,0,0,18,0,28,0,0,18,11,0,28,0,0,18,11,0,0,28,0,1,18,0,0,28,0,0,18,0,0,28,0,0,18,1,28,0,0,18,11,0,0,3,25,0,3,16
2018-09-18T23:59:49Z,19,30,30,19,30,19,30,19,17,15,0,0,0,0,0,0,30,0,19,12,0,30,0,19,30,0,19,0,30,0,19,0,0,30,0,0,19,1,30,0,0,19,12,0,30,0,0,19,11,0,30,0,0,19,12,0,30,0,0,19,11,0,30,0,0,19,11,0,30,0,0,19,11,0,0,30,0,0,19,0,30,0,0,19,11,0,30,0,0,19,11,0,0,30,0,1,19,0,0,30,0,0,19,0,0,30,0,0,19,1,30,0,0,19,11,0,0,3,27,0,3,17
2018-09-19T23:59:50Z,19,30,30,19,30,19,30,19,15,13,0,0,0,0,0,0,30,0,19,12,0,30,0,19,30,0,19,0,30,0,19,0,0,30,0,0,19,1,30,0,0,19,12,0,30,0,0,19,11,0,30,0,0,19,12,0,30,0,0,19,11,0,30,0,0,19,11,0,30,0,0,19,11,0,0,30,0,0,19,0,30,0,0,19,11,0,30,0,0,19,11,0,0,30,0,1,19,0,0,30,0,0,19,0,0,30,0,0,19,1,30,0,0,19,11,0,0,3,27,0,3,17
2018-09-20T23:59:48Z,20,31,31,20,31,20,31,20,14,15,0,0,0,0,0,0,31,0,20,13,0,31,0,20,30,0,19,0,31,0,20,0,0,31,0,0,20,1,31,0,0,20,13,0,31,0,0,20,12,0,31,0,0,20,13,0,31,0,0,20,12,0,31,0,0,20,12,0,31,0,0,20,12,0,0,31,0,0,20,0,31,0,0,20,12,0,31,0,0,20,12,0,0,31,0,1,20,0,0,31,0,0,20,0,0,31,0,0,20,1,31,0,0,20,12,0,0,3,28,0,3,18
2018-09-21T23:59:49Z,20,31,31,20,31,20,31,20,18,16,0,0,0,0,0,0,31,0,20,13,0,31,0,20,31,0,20,0,31,0,20,0,0,31,0,0,20,1,31,0,0,20,13,0,31,0,0,20,12,0,31,0,0,20,13,0,31,0,0,20,12,0,31,0,0,20,12,0,31,0,0,20,12,0,0,31,0,0,20,0,31,0,0,20,12,0,31,0,0,20,12,0,0,31,0,1,20,0,0,31,0,0,20,0,0,31,0,0,20,1,31,0,0,20,12,0,0,3,28,0,3,18
2018-09-22T23:59:51Z,20,31,31,20,31,20,31,20,12,13,0,0,0,0,0,0,31,0,20,13,0,31,0,20,31,0,20,0,31,0,20,0,0,31,0,0,20,1,31,0,0,20,13,0,31,0,0,20,12,0,31,0,0,20,13,0,31,0,0,20,12,0,31,0,0,20,12,0,31,0,0,20,12,0,0,31,0,0,20,0,31,0,0,20,12,0,31,0,0,20,12,0,0,31,0,1,20,0,0,31,0,0,20,0,0,31,0,1,20,1,31,0,0,20,12,0,0,3,28,0,3,18
2018-09-23T23:59:51Z,20,31,31,20,31,20,31,20,11,11,0,0,0,0,0,0,31,0,20,13,0,31,0,20,31,0,20,0,31,0,20,0,0,31,0,0,20,1,31,0,0,20,13,0,31,0,0,20,12,0,31,0,0,20,13,0,31,0,0,20,12,0,31,0,0,20,12,0,31,0,0,20,12,0,0,31,0,0,20,0,31,0,0,20,12,0,31,0,0,20,12,0,0,31,0,1,20,0,0,31,0,0,20,0,0,31,0,0,20,1,31,0,0,20,12,0,0,3,28,0,3,18
2018-09-24T23:59:50Z,21,32,32,21,32,21,32,21,14,13,0,0,0,0,0,0,31,1,20,14,0,32,0,21,31,0,20,0,32,0,21,0,0,32,0,0,21,1,31,1,0,20,14,0,31,1,0,20,13,0,31,1,0,20,14,0,31,1,0,20,13,0,31,1,0,20,13,0,31,1,0,20,13,0,0,32,0,0,21,0,32,0,0,21,12,0,32,0,0,21,12,0,0,32,0,1,21,0,0,32,0,0,21,0,0,32,0,1,21,0,31,1,0,20,13,0,0,4,28,0,4,18
2018-09-25T23:59:50Z,20,31,31,20,31,20,31,20,15,14,0,0,0,0,0,0,31,0,20,13,0,31,0,20,31,0,20,0,31,0,20,0,0,31,0,0,20,1,31,0,0,20,13,0,31,0,0,20,12,0,31,0,0,20,13,0,31,0,0,20,12,0,31,0,0,20,12,0,31,0,0,20,12,0,0,31,0,0,20,0,31,0,0,20,12,0,31,0,0,20,12,0,0,31,0,1,20,0,0,31,0,0,20,0,0,31,0,1,20,0,31,0,0,20,12,0,0,3,28,0,3,18
2018-09-26T23:59:49Z,20,31,31,20,31,20,31,20,19,15,0,0,0,0,0,0,31,0,20,13,0,31,0,20,31,0,20,0,31,0,20,0,0,31,0,0,20,1,31,0,0,20,13,0,31,0,0,20,12,0,31,0,0,20,13,0,31,0,0,20,12,0,31,0,0,20,12,0,31,0,0,20,12,0,0,31,0,0,20,0,31,0,0,20,12,0,31,0,0,20,12,0,0,31,0,1,20,0,0,31,0,0,20,0,0,31,0,1,20,0,31,0,0,20,12,0,0,3,28,0,3,18
2018-09-27T23:59:49Z,20,31,31,20,31,20,31,20,17,14,0,0,0,0,0,0,31,0,20,13,0,31,0,20,31,0,20,0,31,0,20,0,0,31,0,0,20,1,31,0,0,20,13,0,31,0,0,20,12,0,31,0,0,20,13,0,31,0,0,20,12,0,31,0,0,20,12,0,31,0,0,20,12,0,0,31,0,0,20,0,31,0,0,20,12,0,31,0,0,20,12,0,0,31,0,1,20,0,0,31,0,0,20,0,0,31,0,1,20,0,31,0,0,20,12,0,0,3,28,0,3,18
2018-09-28T23:59:49Z,21,32,32,21,32,21,31,20,15,15,0,0,0,0,0,0,31,1,20,14,0,32,0,21,31,0,20,0,32,0,21,0,0,32,0,0,21,1,32,0,0,21,13,0,32,0,0,21,12,0,31,1,0,20,14,0,31,1,0,20,13,0,31,1,0,20,13,0,31,1,0,20,13,0,0,32,0,0,21,0,32,0,0,21,12,0,32,0,0,21,12,0,0,32,0,1,21,0,0,32,0,0,21,0,0,32,0,2,21,0,31,1,0,20,13,0,0,4,28,0,4,18
2018-09-29T23:59:51Z,21,32,32,21,32,21,32,21,12,13,0,0,0,0,0,0,32,0,21,13,0,32,0,21,32,0,21,0,32,0,21,0,0,32,0,0,21,1,32,0,0,21,13,0,32,0,0,21,12,0,32,0,0,21,13,0,32,0,0,21,12,0,32,0,0,21,12,0,32,0,0,21,12,0,0,32,0,0,21,0,32,0,0,21,12,0,32,0,0,21,12,0,0,32,0,1,21,0,0,32,0,0,21,0,0,32,0,1,21,0,32,0,0,21,12,0,0,3,29,0,3,19
2018-09-30T23:59:51Z,21,32,32,21,32,21,32,21,19,16,0,0,0,0,0,0,31,1,20,14,0,32,0,21,31,0,20,0,32,0,21,0,0,32,0,0,21,1,32,0,0,21,13,0,31,1,0,20,13,0,31,1,0,20,14,0,31,1,0,20,13,0,31,1,0,20,13,0,31,1,0,20,13,0,0,32,0,0,21,0,32,0,0,21,12,0,32,0,0,21,12,0,0,32,0,1,21,0,0,32,0,0,21,0,0,32,0,1,21,0,31,1,0,20,13,0,0,4,28,0,4,18
2018-10-01T23:59:48Z,20,31,31,20,31,20,31,20,15,13,0,0,0,0,0,0,31,0,20,13,0,31,0,20,31,0,20,0,31,0,20,0,0,31,0,0,20,1,31,0,0,20,13,0,31,0,0,20,12,0,31,0,0,20,13,0,31,0,0,20,12,0,31,0,0,20,12,0,31,0,0,20,12,0,0,31,0,0,20,0,31,0,0,20,12,0,31,0,0,20,12,0,0,31,0,1,20,0,0,31,0,0,20,0,0,31,0,1,20,0,31,0,0,20,12,0,0,3,28,0,3,18
2018-10-02T23:59:59Z,22,33,33,22,33,22,33,22,15,14,0,0,0,0,0,0,32,1,21,14,0,33,0,22,32,0,21,0,33,0,22,0,0,33,0,0,22,1,32,1,0,21,14,0,33,0,0,22,12,0,32,1,0,21,14,0,32,1,0,21,13,0,32,1,0,21,13,0,32,1,0,21,13,0,0,33,0,0,22,0,33,0,0,22,12,0,33,0,0,22,12,0,0,33,0,1,22,0,0,33,0,0,22,0,0,33,0,1,22,0,33,0,0,22,12,0,0,4,29,0,4,19
2018-10-03T23:59:58Z,21,32,32,21,32,21,32,21,13,13,0,0,0,0,0,0,32,0,21,13,0,32,0,21,32,0,21,0,32,0,21,0,0,32,0,0,21,1,32,0,0,21,13,0,32,0,0,21,12,0,32,0,0,21,13,0,32,0,0,21,12,0,32,0,0,21,12,0,32,0,0,21,12,0,0,32,0,0,21,0,32,0,0,21,12,0,32,0,0,21,12,0,0,32,0,1,21,0,0,32,0,0,21,0,0,32,0,1,21,0,32,0,0,21,12,0,0,3,29,0,3,19
2018-10-04T23:59:48Z,20,31,31,20,31,20,31,20,17,15,0,0,0,0,0,0,31,0,20,13,0,31,0,20,31,0,20,0,31,0,20,0,0,31,0,0,20,1,31,0,0,20,13,0,31,0,0,20,12,0,31,0,0,20,13,0,31,0,0,20,12,0,31,0,0,20,12,0,31,0,0,20,12,0,0,31,0,0,20,0,31,0,0,20,12,0,31,0,0,20,12,0,0,31,0,1,20,0,0,31,0,0,20,0,0,31,0,1,20,0,31,0,0,20,12,0,0,3,28,0,3,18
2018-10-05T23:59:49Z,20,31,31,20,31,20,31,20,17,15,0,0,0,0,0,0,31,0,20,13,0,31,0,20,31,0,20,0,31,0,20,0,0,31,0,0,20,1,31,0,0,20,13,0,31,0,0,20,12,0,31,0,0,20,13,0,31,0,0,20,12,0,31,0,0,20,12,0,31,0,0,20,12,0,0,31,0,0,20,0,31,0,0,20,12,0,31,0,0,20,12,0,0,31,0,1,20,0,0,31,0,0,20,0,0,31,0,1,20,0,31,0,0,20,12,0,0,3,28,0,3,18
2018-10-06T23:59:49Z,20,31,31,20,31,20,31,20,18,16,0,0,0,0,0,0,31,0,20,13,0,31,0,20,31,0,20,0,31,0,20,0,0,31,0,0,20,1,31,0,0,20,13,0,31,0,0,20,12,0,31,0,0,20,13,0,31,0,0,20,12,0,31,0,0,20,12,0,31,0,0,20,12,0,0,31,0,0,20,0,31,0,0,20,12,0,31,0,0,20,12,0,0,31,0,1,20,0,0,31,0,0,20,0,0,31,0,2,20,0,31,0,0,20,12,0,0,3,28,0,3,18
2018-10-07T23:59:59Z,21,32,32,21,32,21,32,21,14,14,0,0,0,0,0,0,32,0,21,13,0,32,0,21,32,0,21,0,32,0,21,0,0,32,0,0,21,1,32,0,0,21,13,0,32,0,0,21,12,0,32,0,0,21,13,0,32,0,0,21,12,0,32,0,0,21,12,0,32,0,0,21,12,0,0,32,0,1,21,0,32,0,0,21,12,0,32,0,0,21,12,0,0,32,0,1,21,0,0,32,0,0,21,0,0,32,0,2,21,0,32,0,0,21,12,0,0,3,29,0,3,19